Temperature
19 20 20 20 20 20 19 18 18 18 18 19 19 19 20 20 20 20 20 20 20 20 20 20 20 19 19 19 19 19 18 18 18 18 17 17 17 17 16 16 16 16 15 15
19 20 20 20 20 20 20 19 19 19 19 19 19 20 20 20 20 20 20 20 20 20 20 20 20 20 19 19 19 19 18 18 18 18 17 17 17 17 16 16 16 15 15 15
18 19 19 19 20 20 20 20 19 19 19 19 19 19 20 20 21 21 21 21 20 20 20 20 20 20 20 19 19 19 18 18 18 17 17 17 17 16 16 16 16 15 15 15
17 18 19 19 20 20 20 20 20 19 19 19 19 20 20 20 21 21 21 21 20 20 20 20 20 20 20 19 19 19 18 18 18 17 17 17 16 16 16 16 15 15 15 15
16 17 18 20 21 20 20 20 20 19 19 19 20 20 19 20 21 21 21 21 20 20 20 20 20 20 19 19 19 18 18 18 17 17 17 16 16 16 15 15 15 15 14 14
16 17 18 19 21 21 20 19 20 20 19 19 19 17 17 20 20 20 20 20 20 20 20 20 19 19 19 19 18 18 18 18 17 17 16 16 16 16 15 15 14 14 14 14
16 17 17 19 20 21 19 19 20 20 20 20 19 19 20 20 20 20 20 20 20 19 19 19 19 19 19 18 18 18 18 17 17 16 16 16 15 15 15 14 14 14 14 13
15 16 17 19 19 19 19 20 20 21 21 21 21 20 20 20 19 19 19 19 19 19 19 19 19 19 18 18 18 17 17 17 16 16 16 15 15 15 14 14 14 14 13 13
16 17 18 20 20 21 21 21 21 21 21 21 20 20 20 19 19 19 19 19 19 19 18 18 18 18 18 18 17 17 17 16 16 16 15 15 14 14 14 13 13 13 13 13
16 17 18 20 20 21 21 21 21 21 21 20 20 19 19 19 19 18 18 18 18 18 18 17 17 17 17 17 17 17 16 16 16 15 15 14 14 14 13 13 13 13 12 12
16 17 18 19 20 20 20 20 20 20 20 20 19 19 19 18 18 18 18 18 18 17 17 17 17 17 17 16 16 16 16 16 15 15 14 14 14 13 13 13 12 12 12 12
16 17 17 18 19 20 19 19 19 19 19 19 19 19 19 18 18 17 17 17 17 17 17 16 16 16 16 16 16 15 15 15 14 14 14 13 13 13 12 12 11 11 11 11
19 19 19 19 19 19 19 19 19 19 19 18 18 18 18 18 17 17 17 17 16 16 16 16 16 16 15 15 15 15 14 14 14 13 13 13 12 12 12 11 11 11 10 10
19 19 18 18 18 19 19 18 18 18 18 18 18 18 17 17 17 17 16 16 16 16 15 15 15 15 15 14 14 14 14 13 13 13 12 12 12 11 11 11 10 10 10 10
18 19 18 18 18 18 18 18 17 17 17 17 17 17 17 17 16 16 16 16 15 15 15 15 14 14 14 13 13 13 13 12 12 12 11 11 11 11 10 10 10 10 9 9
18 18 18 18 17 17 17 17 17 16 16 16 16 16 16 16 16 15 15 15 15 14 14 14 14 13 13 13 12 12 12 12 11 11 11 10 10 10 9 9 9 9 9 9
17 16 17 16 17 16 16 16 16 16 16 16 15 15 15 15 15 15 15 14 14 14 13 13 13 13 12 12 12 11 11 11 11 10 10 10 9 9 9 9 8 8 8 8
17 17 17 17 16 16 16 16 15 15 15 15 15 15 15 14 14 14 14 14 13 13 13 12 12 12 12 11 11 11 11 10 10 10 9 9 9 9 8 8 8 8 7 7
16 16 16 16 15 15 15 15 15 15 14 14 14 14 14 14 14 13 13 13 13 12 12 12 11 11 11 11 10 10 10 10 9 9 9 8 8 8 8 8 7 7 7 7
15 15 15 15 15 15 14 14 14 14 14 14 13 13 13 13 13 13 12 12 12 12 12 11 11 11 10 10 10 10 9 9 9 9 8 8 8 8 7 7 7 7 6 6
14 14 14 14 14 14 14 14 13 13 13 13 13 13 13 12 12 12 12 11 11 11 11 10 10 10 10 9 9 9 9 9 8 8 8 8 7 7 7 7 6 6 6 5
13 13 13 13 13 13 13 13 13 13 13 12 12 12 12 11 11 11 11 11 11 10 10 10 10 9 9 9 9 9 8 8 8 7 7 7 7 7 6 6 6 5 5 5
13 13 13 13 12 12 12 12 12 12 12 12 12 11 11 11 11 11 10 10 10 10 10 9 9 9 8 8 8 8 8 7 7 7 7 6 6 6 6 5 5 5 5 4
12 12 12 12 12 12 11 11 11 11 11 11 11 11 11 10 10 10 10 10 9 9 9 9 9 8 8 8 8 7 7 7 7 6 6 6 6 5 5 5 5 4 4 4
11 11 11 11 11 11 11 11 11 10 10 10 10 10 10 10 10 9 9 9 9 8 8 8 8 8 7 7 7 7 6 6 6 6 6 5 5 5 4 4 4 4 3 3
11 11 11 11 11 10 10 10 10 10 10 9 9 9 9 9 9 8 8 8 8 8 7 7 7 7 7 7 6 6 6 6 5 5 5 5 4 4 4 4 3 3 3 3
10 10 10 10 10 10 10 10 9 9 9 9 9 8 8 8 8 8 8 7 7 7 7 7 6 6 6 6 6 5 5 5 5 5 4 4 4 3 3 3 3 2 2 2
Wind_Speed
4 3 2 3 4 6 5 7 6 5 4 5 5 5 5 4 6 7 8 9 9 9 8 8 8 8 8 8 7 7 8 7 7 6 5 5 4 4 4 4 5 4 4 3
1 1 1 0 3 4 5 4 5 4 4 5 3 3 4 5 7 8 8 9 9 8 8 9 9 9 8 8 8 8 8 8 6 6 5 5 5 4 4 4 4 4 4 4
2 2 3 2 5 5 4 5 7 6 6 3 3 4 5 6 7 9 9 8 8 9 9 9 10 10 10 9 8 8 8 7 6 7 6 5 5 5 5 5 4 4 4 4
1 3 2 7 4 4 4 3 5 5 5 6 6 4 2 3 6 7 7 8 8 7 8 8 8 8 8 7 8 8 7 7 7 7 6 5 5 5 4 4 4 4 4 4
3 2 3 5 2 4 5 2 3 6 6 5 4 4 3 1 4 6 6 6 6 6 6 6 7 7 7 7 7 7 7 7 7 7 7 6 6 5 4 4 4 4 3 4
4 4 5 7 5 2 5 1 3 5 6 6 6 4 4 4 4 4 4 4 4 4 4 5 5 7 8 7 7 7 7 7 7 7 7 7 6 5 4 4 4 4 3 3
4 4 5 7 4 3 4 6 4 5 7 7 6 6 5 4 4 4 4 4 4 5 4 4 5 8 8 7 7 7 6 5 5 6 6 6 5 4 4 4 4 4 3 2
5 4 6 4 3 5 6 3 3 4 5 6 5 5 4 5 5 5 4 4 5 5 3 2 4 7 7 6 6 5 5 5 5 4 5 5 5 4 4 5 4 3 3 2
7 6 5 3 5 5 5 4 3 4 4 7 7 5 5 5 5 5 5 4 4 5 4 3 3 6 7 5 4 6 6 5 4 4 3 4 5 5 3 4 4 3 3 2
2 2 2 1 1 2 3 4 3 4 6 8 7 6 6 5 4 4 4 4 4 6 5 3 2 3 4 4 5 7 6 5 5 5 4 3 3 3 4 4 4 3 3 3
2 2 1 2 1 2 2 4 5 4 4 6 8 6 6 5 5 4 3 3 5 6 5 3 2 3 3 4 6 6 5 5 5 4 4 4 3 2 3 3 4 5 4 4
6 7 5 5 4 4 4 4 5 5 3 3 6 7 6 5 4 4 4 4 5 5 5 4 4 4 3 4 6 7 5 4 4 4 3 4 4 2 3 2 2 3 3 3
6 5 5 5 4 4 5 5 4 5 6 5 4 5 5 4 4 5 5 5 5 5 5 5 5 4 3 3 5 6 5 5 4 4 4 4 3 4 2 3 4 2 1 2
4 4 3 4 4 4 5 5 4 4 4 5 4 5 5 4 4 5 5 5 5 5 5 5 5 3 2 4 5 5 5 5 5 4 4 4 4 3 3 3 1 1 2 1
4 5 6 5 4 5 5 6 5 4 3 3 4 5 5 5 5 5 5 5 6 6 5 5 5 3 2 4 5 5 4 3 3 3 3 3 3 3 2 2 2 1 1 2
4 3 5 6 6 6 5 6 6 5 4 3 3 4 4 5 5 5 5 6 7 6 5 5 4 2 3 4 5 4 3 5 5 3 3 3 3 3 2 2 2 1 1 1
6 6 6 6 6 6 6 6 7 6 5 5 5 4 5 5 5 5 5 5 5 5 5 5 4 3 4 5 5 3 3 3 4 3 3 3 3 3 3 3 3 2 2 2
8 8 9 9 8 6 5 5 6 6 6 5 5 5 6 6 7 6 5 5 5 4 3 3 4 4 4 4 4 3 3 3 2 3 2 2 2 3 3 3 3 2 2 1
4 6 6 6 7 7 6 6 6 6 5 6 6 6 5 5 6 5 5 6 6 5 3 3 6 5 3 3 4 3 3 3 2 2 2 2 2 2 2 2 2 2 2 1
3 4 5 5 5 6 6 5 5 5 5 6 6 6 5 4 5 6 6 5 4 5 5 5 5 4 3 3 4 3 3 3 3 2 2 2 2 2 2 2 2 2 2 1
4 5 5 5 5 4 5 6 6 5 5 6 7 7 6 5 5 6 5 3 2 3 5 6 4 3 3 3 4 3 3 3 2 2 2 2 2 2 2 2 2 2 2 2
4 5 5 5 5 3 3 4 5 5 5 5 5 5 5 5 5 4 4 4 5 5 4 4 3 4 4 4 3 3 3 3 2 2 2 2 2 2 2 1 1 1 2 2
4 4 4 5 5 4 2 2 4 5 5 5 6 6 6 5 5 6 4 3 4 6 5 4 5 6 5 4 3 3 3 3 2 2 2 2 2 2 2 1 1 1 1 2
3 4 4 4 5 5 3 1 2 3 3 3 4 5 5 4 2 2 3 6 7 6 4 6 7 7 6 3 3 3 3 2 2 2 2 1 1 1 1 1 1 1 1 2
4 4 4 5 5 4 3 3 2 3 3 2 2 2 3 4 4 3 4 5 6 6 4 5 7 6 4 3 3 3 3 3 3 2 2 2 1 1 1 1 1 1 1 2
3 3 3 4 4 3 3 3 3 2 3 2 1 1 2 3 4 4 4 5 6 5 4 3 4 4 3 3 3 3 3 2 2 2 2 2 2 1 1 1 1 2 2 2
3 2 2 2 1 2 3 3 4 3 3 4 3 2 3 4 4 4 4 4 4 4 3 3 3 3 3 3 3 3 2 2 2 2 2 2 2 2 2 2 2 2 2 2
Wind_Direction
211 218 194 197 208 191 181 183 184 211 213 242 225 207 200 186 168 157 164 171 178 185 189 185 182 185 185 186 181 172 168 176 188 185 173 166 166 168 163 162 165 161 154 154
316 309 62 253 238 197 200 188 181 180 240 244 234 178 175 178 170 166 169 175 180 184 185 187 188 187 185 186 183 173 175 184 182 171 168 171 173 168 167 170 163 150 154 154
258 313 40 296 241 199 188 190 175 198 223 204 164 180 191 183 179 177 179 183 186 189 191 192 191 186 187 190 179 174 179 179 176 174 176 182 176 167 174 174 161 155 163 156
147 57 221 251 251 180 164 199 188 180 188 185 183 182 178 173 173 178 183 187 194 192 194 196 193 189 184 173 171 176 179 180 179 175 176 175 170 179 183 171 164 165 167 170
139 170 264 289 265 168 158 240 206 178 179 170 145 80 13 250 166 170 174 176 183 188 185 185 186 179 164 166 168 171 181 186 184 178 177 174 179 187 184 170 170 169 167 168
139 157 219 243 260 187 114 298 264 173 174 168 128 130 235 230 176 152 149 150 155 153 148 161 178 161 153 163 165 182 190 187 179 173 172 177 182 177 164 159 170 163 159 168
161 189 252 255 263 101 133 233 238 172 165 158 165 189 196 172 154 140 133 137 133 127 139 171 165 150 154 163 185 196 178 162 162 170 172 171 165 157 151 152 150 154 164 180
157 173 241 257 123 155 205 215 176 165 162 157 159 149 141 142 143 135 123 117 118 116 117 127 142 149 158 179 194 165 144 146 157 162 164 158 150 153 150 148 152 164 165 187
179 201 225 199 173 189 164 154 168 161 156 145 139 142 143 141 140 135 133 125 115 116 106 84 111 149 162 184 160 141 138 146 150 143 140 140 148 153 147 152 164 180 180 201
147 235 222 202 152 135 143 148 157 149 146 143 143 147 146 145 148 143 137 134 123 117 111 99 95 125 156 158 142 138 146 151 145 140 132 124 133 150 156 168 178 186 193 207
159 221 73 336 215 148 102 108 108 104 131 149 145 144 150 154 157 156 143 133 127 129 129 129 109 107 118 131 130 129 133 136 136 138 141 131 120 138 166 191 192 190 202 199
206 207 180 222 230 161 136 140 139 127 119 134 143 147 146 154 158 153 144 129 122 120 122 120 109 101 94 113 126 128 125 128 135 137 134 132 126 85 41 72 118 166 177 179
199 199 186 191 192 171 164 163 150 144 146 141 137 136 137 145 153 144 138 133 136 136 132 124 113 105 100 109 119 128 138 142 139 139 143 148 148 146 121 18 34 66 138 164
180 153 174 197 193 175 159 153 137 129 131 134 133 130 130 130 140 146 155 156 144 134 126 121 114 109 113 117 119 126 132 139 142 151 156 160 163 162 157 152 127 331 335 313
228 195 193 189 167 154 142 133 127 131 129 118 124 132 139 144 156 164 156 141 132 128 128 125 121 122 120 119 123 130 132 140 145 146 149 154 155 151 153 159 170 211 345 344
201 175 161 156 159 157 147 143 149 163 159 149 144 152 159 158 155 148 144 142 143 149 151 142 140 149 131 121 120 126 138 138 136 138 141 143 147 152 159 170 183 196 221 254
170 181 176 171 172 171 174 170 168 170 164 161 164 157 145 136 136 143 148 150 149 152 153 148 151 137 123 124 127 130 132 138 131 128 147 159 162 171 179 184 196 213 237 241
188 188 180 173 173 172 172 166 162 160 163 165 153 143 147 155 165 167 155 132 120 118 134 151 143 127 121 123 128 133 135 139 144 152 158 163 171 180 180 188 201 213 254 260
172 174 176 174 169 164 162 163 166 164 161 153 150 159 166 167 165 159 147 140 144 156 182 165 139 129 132 138 129 130 130 130 133 140 151 152 152 167 177 190 208 220 230 238
137 149 158 159 154 151 155 158 153 152 158 157 151 148 153 161 155 151 147 157 183 186 176 157 141 139 146 153 140 141 143 146 151 155 151 157 169 186 193 197 205 217 229 232
127 126 134 141 141 144 152 153 151 154 158 156 158 164 168 168 164 155 149 166 210 168 158 152 149 155 163 158 140 140 147 153 160 166 167 175 186 198 205 208 214 222 227 233
135 125 126 131 131 133 147 149 154 158 158 159 159 159 158 165 167 163 172 183 183 165 156 157 162 167 163 144 137 141 145 150 155 162 172 181 187 197 205 206 218 227 227 230
144 136 135 138 140 139 125 132 147 156 161 164 164 168 173 179 175 169 186 195 169 163 157 165 165 157 146 133 139 143 146 148 154 166 181 189 194 195 198 208 218 222 228 235
141 138 138 131 121 118 125 156 152 151 153 159 167 170 166 162 170 184 173 169 167 159 160 168 161 152 140 140 142 143 148 156 161 164 163 163 169 181 189 198 220 238 239 243
143 139 137 136 140 155 162 145 116 111 117 119 127 152 163 162 164 167 156 160 162 155 160 169 161 150 141 145 151 155 162 169 163 155 159 169 182 193 202 210 227 247 258 263
146 151 160 167 167 169 164 150 147 156 149 142 129 130 133 130 136 144 150 158 161 160 160 159 155 147 147 149 155 160 161 160 149 147 166 180 187 193 204 218 241 254 259 264
121 123 121 106 121 155 156 155 159 174 177 168 164 163 151 144 140 144 145 149 152 155 156 155 157 158 155 152 151 153 160 170 174 173 174 181 192 208 224 240 252 255 260 268
Height
1517 1514 1514 1515 1515 1516 1521 1524 1530 1527 1524 1517 1513 1512 1512 1512 1514 1516 1518 1521 1523 1526 1528 1530 1533 1535 1537 1540 1542 1544 1546 1548 1549 1551 1552 1553 1554 1555 1556 1556 1557 1557 1558 1558
1517 1513 1513 1515 1513 1513 1515 1516 1519 1520 1520 1512 1511 1511 1511 1512 1514 1515 1517 1520 1522 1524 1526 1528 1530 1533 1535 1538 1540 1542 1543 1545 1547 1548 1549 1550 1551 1552 1553 1554 1554 1555 1556 1556
1526 1518 1517 1523 1512 1511 1512 1511 1513 1518 1515 1510 1511 1510 1511 1512 1513 1514 1516 1518 1520 1522 1524 1526 1528 1530 1533 1535 1537 1539 1540 1542 1544 1545 1546 1547 1548 1549 1550 1551 1552 1552 1553 1554
1527 1526 1533 1518 1504 1504 1507 1508 1506 1507 1507 1508 1509 1510 1510 1511 1512 1513 1515 1517 1519 1520 1522 1524 1526 1528 1530 1532 1534 1536 1537 1539 1540 1542 1543 1544 1545 1546 1547 1548 1549 1549 1550 1551
1530 1531 1525 1512 1504 1503 1507 1509 1504 1505 1506 1507 1508 1509 1511 1511 1512 1513 1514 1516 1517 1519 1521 1523 1524 1526 1528 1530 1531 1533 1534 1536 1537 1539 1540 1541 1542 1543 1544 1545 1546 1547 1547 1548
1526 1529 1531 1514 1501 1499 1503 1512 1504 1503 1504 1505 1507 1514 1513 1511 1511 1512 1513 1515 1516 1518 1519 1521 1522 1524 1525 1527 1528 1530 1531 1533 1534 1536 1537 1538 1539 1540 1541 1542 1543 1544 1545 1545
1522 1525 1519 1503 1498 1500 1516 1514 1502 1501 1502 1503 1505 1507 1508 1509 1510 1511 1512 1514 1515 1516 1517 1519 1520 1522 1523 1524 1525 1527 1529 1530 1532 1533 1534 1535 1536 1537 1538 1539 1540 1541 1542 1542
1520 1525 1520 1498 1498 1503 1504 1499 1500 1500 1501 1502 1503 1505 1507 1508 1509 1510 1511 1512 1513 1514 1516 1517 1519 1520 1520 1522 1523 1525 1526 1528 1529 1530 1531 1532 1533 1534 1535 1536 1537 1538 1538 1539
1507 1508 1498 1496 1496 1497 1497 1498 1499 1500 1500 1501 1502 1504 1506 1507 1508 1509 1510 1511 1512 1513 1515 1516 1517 1518 1519 1520 1522 1523 1524 1525 1526 1528 1529 1530 1531 1531 1532 1533 1534 1535 1535 1535
1500 1498 1495 1495 1495 1496 1496 1497 1498 1499 1499 1501 1502 1503 1505 1506 1507 1508 1509 1510 1511 1512 1513 1515 1516 1517 1517 1519 1520 1521 1521 1522 1524 1525 1526 1527 1528 1529 1529 1530 1531 1531 1532 1532
1498 1495 1495 1494 1495 1495 1496 1497 1498 1498 1499 1500 1501 1502 1504 1505 1506 1507 1508 1509 1510 1511 1512 1513 1514 1515 1516 1517 1518 1518 1519 1520 1521 1522 1523 1524 1525 1526 1527 1528 1528 1529 1529 1529
1495 1491 1492 1493 1493 1494 1495 1496 1497 1498 1498 1500 1500 1501 1502 1503 1505 1506 1507 1508 1509 1510 1511 1512 1513 1514 1515 1515 1516 1516 1517 1518 1519 1520 1521 1521 1522 1523 1524 1525 1526 1526 1527 1527
1486 1487 1489 1490 1491 1492 1494 1495 1495 1496 1497 1498 1499 1500 1501 1502 1503 1505 1506 1507 1508 1509 1510 1511 1512 1513 1513 1514 1515 1515 1516 1517 1517 1518 1518 1519 1520 1520 1521 1522 1523 1523 1523 1523
1482 1484 1485 1487 1488 1490 1492 1493 1494 1495 1496 1497 1498 1499 1500 1501 1502 1503 1505 1506 1507 1508 1509 1510 1511 1511 1512 1513 1513 1513 1514 1515 1515 1516 1516 1517 1518 1518 1518 1519 1519 1519 1519 1520
1479 1481 1482 1483 1485 1487 1489 1490 1492 1493 1494 1495 1496 1497 1498 1499 1500 1502 1503 1505 1506 1507 1508 1509 1509 1510 1511 1511 1511 1512 1512 1513 1513 1514 1514 1515 1515 1516 1516 1516 1516 1516 1516 1516
1476 1478 1479 1480 1482 1484 1485 1487 1489 1490 1491 1493 1494 1495 1496 1497 1499 1500 1502 1503 1504 1505 1506 1507 1507 1508 1509 1509 1510 1510 1510 1511 1511 1511 1512 1512 1513 1513 1513 1514 1514 1514 1513 1513
1473 1474 1475 1477 1478 1480 1482 1484 1485 1487 1488 1490 1491 1493 1494 1495 1497 1498 1499 1501 1502 1503 1504 1505 1506 1507 1507 1507 1508 1508 1508 1508 1509 1509 1509 1510 1510 1510 1511 1511 1511 1510 1510 1510
1469 1470 1472 1473 1475 1477 1479 1481 1482 1484 1485 1487 1489 1490 1491 1493 1494 1495 1497 1498 1499 1501 1502 1503 1503 1504 1505 1505 1506 1506 1506 1506 1506 1506 1507 1507 1507 1508 1508 1508 1507 1507 1507 1507
1465 1467 1469 1471 1473 1474 1476 1478 1479 1481 1483 1485 1486 1488 1489 1490 1492 1493 1494 1495 1496 1497 1499 1500 1501 1502 1502 1503 1503 1503 1503 1503 1504 1504 1504 1504 1505 1505 1504 1504 1504 1504 1503 1503
1463 1464 1466 1468 1470 1472 1474 1475 1477 1479 1480 1482 1483 1485 1486 1488 1489 1490 1492 1493 1494 1495 1496 1498 1498 1499 1499 1500 1500 1501 1501 1501 1501 1501 1501 1501 1501 1501 1501 1501 1500 1500 1499 1499
1461 1462 1464 1465 1468 1470 1471 1473 1474 1476 1477 1479 1480 1482 1483 1485 1486 1488 1489 1490 1492 1493 1494 1495 1496 1496 1497 1497 1498 1498 1498 1498 1498 1498 1498 1498 1498 1498 1497 1497 1496 1496 1495 1495
1459 1461 1462 1464 1466 1467 1469 1471 1472 1473 1475 1476 1477 1479 1480 1482 1483 1485 1486 1487 1489 1490 1491 1492 1493 1494 1494 1495 1495 1495 1496 1496 1496 1496 1495 1495 1495 1494 1494 1493 1492 1492 1491 1490
1458 1460 1461 1462 1464 1465 1467 1468 1469 1470 1472 1473 1474 1475 1477 1478 1480 1481 1482 1484 1486 1487 1488 1489 1490 1491 1492 1492 1492 1492 1493 1493 1493 1492 1492 1492 1492 1491 1490 1490 1489 1488 1487 1486
1456 1458 1459 1461 1462 1463 1464 1466 1467 1468 1469 1470 1471 1472 1474 1475 1476 1478 1480 1481 1482 1484 1485 1486 1487 1488 1489 1489 1489 1489 1489 1489 1489 1489 1489 1489 1488 1488 1487 1486 1485 1484 1483 1482
1455 1456 1458 1459 1460 1461 1462 1463 1464 1465 1466 1467 1468 1470 1471 1472 1473 1475 1476 1478 1479 1481 1482 1483 1484 1485 1485 1486 1486 1486 1486 1486 1486 1486 1486 1485 1485 1484 1483 1482 1481 1480 1479 1477
1453 1454 1456 1457 1458 1459 1460 1461 1462 1463 1464 1464 1465 1467 1468 1469 1470 1472 1473 1474 1476 1477 1478 1479 1480 1481 1482 1482 1482 1482 1483 1483 1483 1482 1482 1482 1481 1480 1479 1478 1477 1476 1474 1473
1451 1452 1454 1455 1456 1457 1458 1459 1459 1460 1461 1462 1463 1464 1465 1466 1467 1468 1470 1471 1472 1474 1475 1476 1477 1478 1478 1479 1479 1479 1479 1479 1479 1479 1478 1478 1477 1476 1475 1474 1473 1472 1470 1468